Change the Weather History Date:

Wednesday, January 18, 2012

  Actual Average Record
Temperature  
Mean Temperature 36 °F -  
Max Temperature 52 °F 50 °F 74 °F (2015)
Min Temperature 19 °F 27 °F 13 °F (2008)
Degree Days  
Heating Degree Days 30    
Moisture  
Dew Point 20 °F    
Average Humidity 58    
Maximum Humidity 77    
Minimum Humidity 33    
Precipitation  
Precipitation 0.00 in - - ()
Sea Level Pressure  
Sea Level Pressure 30.17 in    
Wind  
Wind Speed 7 mph (SSE)    
Max Wind Speed 16 mph    
Max Gust Speed 21 mph    
Visibility 10 miles    
Events      
Averages and records for this station are not official NWS values.
T = Trace of Precipitation, MM = Missing Value Source: NWS Daily Summary

Daily Weather History Graph

Daily Weather History Graph

Search for Another Location

Airport or City:

Trip Planner

Search our weather history database for the weather conditions in past years. The results will help you decide how hot, cold, wet, or windy it might be!

Date:

Astronomy

Jan. 18, 2012 Rise Set
Actual Time 7:43 AM CST 5:52 PM CST
Civil Twilight 7:15 AM CST 6:19 PM CST
Nautical Twilight 6:44 AM CST 6:50 PM CST
Astronomical Twilight 6:14 AM CST 7:20 PM CST
Moon 3:13 AM CST (1/18) 1:33 PM CST (1/18)
Length of Visible Light 11h 03m
Length of Day
10h 08m
Waning Crescent, 24% of the Moon is Illuminated
Jan 18
Waning Crescent
Jan 23
New
Jan 30
First Quarter
Feb 7
Full
Feb 14
Last Quarter

Hourly Weather History & Observations

Time (CST) Temp. Windchill Dew Point Humidity Pressure Visibility Wind Dir Wind Speed Gust Speed Precip Events Conditions
12:55 AM 25.0 °F 18.1 °F 14.4 °F 64% 30.39 in 10.0 mi NE 5.8 mph - N/A   Clear
1:55 AM 23.2 °F - 14.4 °F 69% 30.38 in 10.0 mi Calm Calm - N/A   Clear
2:55 AM 20.5 °F - 14.4 °F 77% 30.37 in 10.0 mi Calm Calm - N/A   Clear
3:55 AM 20.7 °F - 14.5 °F 77% 30.35 in 10.0 mi Calm Calm - N/A   Clear
4:55 AM 19.9 °F 13.4 °F 13.8 °F 77% 30.33 in 10.0 mi SSW 4.6 mph - N/A   Clear
5:55 AM 19.4 °F - 13.3 °F 77% 30.32 in 10.0 mi Calm Calm - N/A   Clear
6:55 AM 21.2 °F 10.9 °F 15.1 °F 77% 30.31 in 10.0 mi SSW 9.2 mph - N/A   Clear
7:55 AM 22.3 °F 10.8 °F 15.3 °F 74% 30.30 in 10.0 mi SW 11.5 mph - N/A   Clear
8:55 AM 27.0 °F 19.5 °F 17.4 °F 67% 30.32 in 10.0 mi SW 6.9 mph - N/A   Clear
9:55 AM 32.4 °F 23.5 °F 17.8 °F 55% 30.30 in 10.0 mi SSW 11.5 mph - N/A   Clear
10:55 AM 37.8 °F 28.6 °F 16.7 °F 42% 30.27 in - South 16.1 mph - N/A   Clear
11:40 AM 41.0 °F 33.5 °F 17.6 °F 39% 30.19 in 10.0 mi South 13.8 mph - N/A   Partly Cloudy
11:55 AM 41.5 °F 34.2 °F 18.5 °F 40% 30.21 in 10.0 mi SSW 13.8 mph - N/A   Clear
12:55 PM 46.4 °F 40.4 °F 19.4 °F 34% 30.14 in 10.0 mi SSW 13.8 mph 20.7 mph N/A   Partly Cloudy
1:55 PM 48.2 °F - 23.0 °F 37% 30.11 in 10.0 mi SSW 10.4 mph - N/A   Mostly Cloudy
2:55 PM 50.0 °F - 22.5 °F 34% 30.06 in 10.0 mi SSW 10.4 mph - N/A   Clear
3:55 PM 52.2 °F - 23.4 °F 33% 30.04 in 10.0 mi South 9.2 mph - N/A   Clear
4:55 PM 52.7 °F - 25.2 °F 34% 30.02 in 10.0 mi SSE 9.2 mph - N/A   Clear
5:55 PM 45.3 °F 41.1 °F 25.2 °F 45% 30.02 in 10.0 mi ESE 8.1 mph - N/A   Clear
6:55 PM 40.8 °F 35.0 °F 25.5 °F 55% 30.01 in 10.0 mi East 9.2 mph - N/A   Clear
7:55 PM 37.2 °F 31.2 °F 25.7 °F 63% 30.00 in 10.0 mi ESE 8.1 mph - N/A   Clear
8:55 PM 35.2 °F 29.5 °F 25.7 °F 68% 29.99 in 10.0 mi ESE 6.9 mph - N/A   Clear
9:55 PM 35.4 °F 28.4 °F 26.4 °F 70% 29.95 in 10.0 mi ESE 9.2 mph - N/A   Clear
10:55 PM 37.9 °F 32.1 °F 27.0 °F 65% 29.92 in 10.0 mi ESE 8.1 mph - N/A   Clear
11:55 PM 37.9 °F 31.5 °F 27.3 °F 66% 29.88 in 10.0 mi ESE 9.2 mph - N/A   Clear